Date String (YYYY-MM-DD hh:mm:ss) UTC,Instrument flags,Ambient pressure (hPa),Sample flow (lpm),Bypass flow (lpm),Sample temperature (°C),Ambient temperature (°C),ASC tube jacket temperature (°C),LED temperature (°C),Box temperature (°C),Sample RH (%),Span deviation,Mass concentration (μg/m³),Mass concentration (μg/m³),Mass concentration (μg/m³)
DateTimeUTC,F1_M11,P_M11,Q1_M11,Q2_M11,T1_M11,T2_M11,T3_M11,T4_M11,T5_M11,U1_M11,ZSPAN_M11,X0_M11,X2_M11,X1_M11
2022-12-11 04:00:00,,0823.2,5.00,0.00,25.2,23.7,00.0,34.1,27.0,08.8,0000.0,0022.34,0008.21,0006.74
2022-12-11 04:01:00,,0823.2,4.99,0.00,25.2,23.6,00.0,34.1,26.9,08.5,0000.0,0021.02,0008.23,0006.70
2022-12-11 04:02:00,,0823.1,5.00,0.00,25.2,23.6,00.0,34.1,26.9,08.2,0000.0,0021.98,0008.08,0006.59
2022-12-11 04:03:00,,0823.0,5.01,0.00,25.2,23.5,00.0,34.1,26.9,08.4,0000.0,0022.72,0007.96,0006.53
2022-12-11 04:04:00,,0823.0,5.01,0.00,25.2,23.5,00.0,34.1,27.0,08.6,0000.0,0023.44,0007.93,0006.51
2022-12-11 04:05:00,,0822.9,5.00,0.00,25.2,23.5,00.0,34.1,26.9,08.6,0000.0,0023.78,0007.93,0006.49
2022-12-11 04:06:00,,0823.0,5.00,0.00,25.1,23.6,00.0,34.1,27.0,08.7,0000.0,0023.49,0007.91,0006.47
2022-12-11 04:07:00,,0823.0,4.99,0.00,25.1,23.6,00.0,34.1,27.0,08.8,0000.0,0024.09,0007.90,0006.47
2022-12-11 04:08:00,,0823.0,4.99,0.00,25.1,23.6,00.0,34.1,27.0,08.9,0000.0,0024.16,0007.89,0006.47
2022-12-11 04:09:00,,0823.1,5.02,0.00,25.1,23.6,00.0,34.1,27.0,08.9,0000.0,0024.90,0007.91,0006.49
2022-12-11 04:10:00,,0823.1,4.99,0.00,25.1,23.6,00.0,34.1,27.0,08.9,0000.0,0024.64,0007.94,0006.51
2022-12-11 04:11:00,,0823.1,5.01,0.00,25.1,23.6,00.0,34.1,27.0,08.9,0000.0,0024.45,0008.01,0006.53
2022-12-11 04:12:00,,0823.1,5.00,0.00,25.1,23.6,00.0,34.0,27.0,08.9,0000.0,0025.82,0008.06,0006.60
2022-12-11 04:13:00,,0822.9,4.99,0.00,25.1,23.5,00.0,34.0,26.9,08.8,0000.0,0024.49,0008.17,0006.71
2022-12-11 04:14:00,,0823.0,5.01,0.00,25.1,23.5,00.0,34.0,26.9,08.8,0000.0,0024.26,0008.30,0006.78
2022-12-11 04:15:00,,0823.0,5.01,0.00,25.1,23.5,00.0,34.0,26.9,08.9,0000.0,0022.86,0008.34,0006.83
2022-12-11 04:16:00,,0823.0,5.00,0.00,25.1,23.5,00.0,34.0,26.9,08.9,0000.0,0022.78,0008.30,0006.86
2022-12-11 04:17:00,,0823.1,5.01,0.00,25.1,23.5,00.0,34.0,26.9,08.9,0000.0,0022.52,0008.29,0006.90
2022-12-11 04:18:00,,0823.1,5.00,0.00,25.1,23.5,00.0,34.0,26.9,08.8,0000.0,0021.61,0008.26,0006.90
2022-12-11 04:19:00,,0823.1,5.00,0.00,25.1,23.5,00.0,34.0,26.8,08.8,0000.0,0021.66,0008.29,0006.89
2022-12-11 04:20:00,,0823.2,5.00,0.00,25.0,23.4,00.0,34.0,26.8,08.8,0000.0,0021.93,0008.30,0006.85
2022-12-11 04:21:00,,0823.2,5.00,0.00,25.0,23.4,00.0,34.0,26.7,08.5,0000.0,0022.50,0008.22,0006.78
2022-12-11 04:22:00,,0823.2,5.00,0.00,25.0,23.3,00.0,34.0,26.7,08.5,0000.0,0022.07,0008.11,0006.70
2022-12-11 04:23:00,,0823.2,5.01,0.00,24.9,23.3,00.0,33.9,26.6,08.6,0000.0,0020.27,0008.01,0006.62
2022-12-11 04:24:00,,0823.1,5.00,0.00,24.9,23.2,00.0,33.9,26.6,08.6,0000.0,0021.26,0007.96,0006.58
2022-12-11 04:25:00,,0823.0,5.00,0.00,24.9,23.2,00.0,33.9,26.7,08.6,0000.0,0021.36,0007.87,0006.54
2022-12-11 04:26:00,,0823.0,5.01,0.00,24.9,23.2,00.0,33.9,26.6,08.7,0000.0,0021.19,0007.87,0006.51
2022-12-11 04:27:00,,0823.0,5.01,0.00,24.9,23.2,00.0,33.9,26.6,08.5,0000.0,0020.92,0007.85,0006.45
2022-12-11 04:28:00,,0823.1,4.99,0.00,24.9,23.2,00.0,33.9,26.6,08.4,0000.0,0020.96,0007.78,0006.37
2022-12-11 04:29:00,,0823.2,4.99,0.00,24.8,23.2,00.0,33.9,26.6,08.5,0000.0,0020.97,0007.75,0006.32
2022-12-11 04:30:00,,0823.3,4.99,0.00,24.8,23.2,00.0,33.8,26.5,08.5,0000.0,0020.43,0007.67,0006.27
2022-12-11 04:31:00,,0823.2,5.00,0.00,24.8,23.1,00.0,33.8,26.5,08.5,0000.0,0018.93,0007.59,0006.22
2022-12-11 04:32:00,,0823.2,5.00,0.00,24.8,23.1,00.0,33.8,26.5,08.5,0000.0,0018.34,0007.60,0006.20
2022-12-11 04:33:00,,0823.2,5.00,0.00,24.7,23.1,00.0,33.8,26.5,08.4,0000.0,0018.69,0007.59,0006.17
2022-12-11 04:34:00,,0823.2,5.00,0.00,24.7,23.0,00.0,33.8,26.4,08.0,0000.0,0018.75,0007.56,0006.09
2022-12-11 04:35:00,,0823.1,5.00,0.00,24.7,23.0,00.0,33.8,26.4,07.9,0000.0,0017.87,0007.51,0005.98
2022-12-11 04:36:00,,0823.1,5.00,0.00,24.7,23.0,00.0,33.7,26.4,07.9,0000.0,0017.02,0007.41,0005.85
2022-12-11 04:37:00,,0823.1,5.00,0.00,24.7,23.0,00.0,33.7,26.4,07.8,0000.0,0017.57,0007.29,0005.70
2022-12-11 04:38:00,,0823.1,5.00,0.00,24.7,23.0,00.0,33.7,26.4,07.8,0000.0,0017.01,0007.14,0005.56
2022-12-11 04:39:00,,0823.0,5.00,0.00,24.7,23.0,00.0,33.7,26.5,07.8,0000.0,0017.03,0007.00,0005.45
2022-12-11 04:40:00,,0822.9,5.02,0.00,24.7,23.0,00.0,33.7,26.5,08.0,0000.0,0017.26,0006.87,0005.34
2022-12-11 04:41:00,,0823.0,4.99,0.00,24.7,23.0,00.0,33.7,26.6,08.1,0000.0,0017.16,0006.76,0005.26
2022-12-11 04:42:00,,0823.0,4.99,0.00,24.7,23.1,00.0,33.6,26.5,08.0,0000.0,0017.34,0006.64,0005.15
2022-12-11 04:43:00,,0823.0,5.00,0.00,24.7,23.1,00.0,33.6,26.5,07.9,0000.0,0016.42,0006.54,0005.07
2022-12-11 04:44:00,,0823.1,5.01,0.00,24.6,23.1,00.0,33.6,26.5,08.0,0000.0,0016.50,0006.43,0005.00
2022-12-11 04:45:00,,0822.9,5.00,0.00,24.6,23.0,00.0,33.6,26.4,08.0,0000.0,0017.13,0006.40,0004.97
2022-12-11 04:46:00,,0822.9,5.00,0.00,24.6,23.0,00.0,33.6,26.4,08.1,0000.0,0016.95,0006.39,0005.00
2022-12-11 04:47:00,,0823.0,4.99,0.00,24.6,23.0,00.0,33.6,26.4,08.2,0000.0,0017.00,0006.42,0005.04
2022-12-11 04:48:00,,0822.9,5.01,0.00,24.6,23.0,00.0,33.6,26.4,08.2,0000.0,0016.80,0006.41,0005.07
2022-12-11 04:49:00,,0823.0,5.01,0.00,24.6,23.0,00.0,33.6,26.3,08.2,0000.0,0017.34,0006.52,0005.12
2022-12-11 04:50:00,,0823.1,4.99,0.00,24.6,23.0,00.0,33.6,26.4,08.3,0000.0,0018.40,0006.64,0005.20
2022-12-11 04:51:00,,0823.1,4.99,0.00,24.6,23.0,00.0,33.5,26.3,08.3,0000.0,0018.74,0006.69,0005.26
2022-12-11 04:52:00,,0823.0,4.99,0.00,24.5,22.9,00.0,33.5,26.3,08.3,0000.0,0018.59,0006.69,0005.29
2022-12-11 04:53:00,,0823.0,5.01,0.00,24.5,22.9,00.0,33.5,26.3,08.2,0000.0,0018.61,0006.70,0005.31
2022-12-11 04:54:00,,0823.0,5.01,0.00,24.5,22.9,00.0,33.5,26.4,08.1,0000.0,0019.37,0006.74,0005.33
2022-12-11 04:55:00,,0822.9,5.00,0.00,24.5,22.9,00.0,33.5,26.4,08.1,0000.0,0019.18,0006.78,0005.34
2022-12-11 04:56:00,,0822.9,5.00,0.00,24.5,22.9,00.0,33.5,26.4,08.1,0000.0,0018.81,0006.80,0005.37
2022-12-11 04:57:00,,0823.2,4.99,0.00,24.5,23.0,00.0,33.5,26.4,08.2,0000.0,0018.76,0006.80,0005.39
2022-12-11 04:58:00,,0823.1,5.01,0.00,24.5,23.0,00.0,33.5,26.4,08.2,0000.0,0018.86,0006.78,0005.41
2022-12-11 04:59:00,,0823.1,5.01,0.00,24.5,23.0,00.0,33.5,26.4,08.2,0000.0,0019.42,0006.84,0005.44
